Location: Academy at Carrie F Thomas
(32.8490°N, 97.2053°W)
Time: 09:59:33
(UTC+00:00)

Cosmos 1602 - Pass Details

Date: 08 December 2021
Orbit: 512 x 530 km, 82.5° (Epoch: 28 January)

Event Time Altitude Azimuth Distance (km) Brightness Sun altitude
Rises 12:44:04 0° 203° (SSW) 2,608 7.3 -7.6°
Reaches altitude 10° 12:46:18 10° 213° (SSW) 1,726 6.3 -7.1°
Maximum altitude 12:49:47 34° 280° (W) 850 4.3 -6.5°
Drops below altitude 10° 12:53:17 10° 347° (NNW) 1,738 6.0 -5.8°
Sets 12:55:34 0° 356° (N) 2,630 7.0 -5.3°
